Hourly Weather Roundup
Issued by NWS Central Illinois

Home | Current Version | Previous Version | Text Only | Print | Product List | Glossary On
Versions: 1 2 3 4 5 6 7 8 9 10 11 12 13 14 15 16 17 18 19 20 21 22 23 24 25 26 27 28 29 30 31 32 33 34 35 36 37 38 39 40 41 42 43 44 45 46 47 48 49 50
000
NZUS43 KILX 231510
HWRILX

AREA WEATHER ROUNDUP
NATIONAL WEATHER SERVICE, LINCOLN IL
900 AM CST SUN NOV 23 2014


CITY           SKY/WX    TMP DP  RH WIND       PRES   REMARKS
BLOOMINGTON    CLOUDY    47  45  93 S15       29.74F
CHAMPAIGN      CLOUDY    50  46  86 S14       29.77F
DECATUR        CLOUDY    51  45  79 S15       29.75F
FLORA          CLOUDY    53  43  67 SE13      29.79F
GALESBURG      DRIZZLE   48  46  95 SE7       29.64F
JACKSONVILLE   CLOUDY    55  49  80 S14       29.66F
LACON          CLOUDY    51  44  79 S15       29.69F
LAWRENCEVILLE  LGT RAIN  52  47  83 S14       29.83S
LITCHFIELD     CLOUDY    51  46  83 SE14      29.70F
$$


CITY           SKY/WX    TMP DP  RH WIND       PRES   REMARKS
LINCOLN        CLOUDY    51  46  83 S13       29.71F
MACOMB         CLOUDY    49  47  93 S8        29.65F
MATTOON        CLOUDY    51  44  77 S15       29.76F
MT CARMEL AP   CLOUDY    52  46  82 SE13      29.81F HAZE
OLNEY-NOBLE AP CLOUDY    54  43  66 SE9       29.79F
PARIS          CLOUDY    52  47  82 SE15      29.80F
PEORIA         CLOUDY    52  45  77 S13       29.69F
PONTIAC        CLOUDY    49  45  85 S18       29.73F
RANTOUL        CLOUDY    49  45  87 SE9       29.76F
ROBINSON       CLOUDY    56  43  61 S14       29.82F
SPRINGFIELD    CLOUDY    53  46  77 S13G21    29.70F
TAYLORVILLE    CLOUDY    50  45  81 SE10      29.72F
$$

...REGIONAL REPORTS...


CITY           SKY/WX    TMP DP  RH WIND       PRES   REMARKS
CHICAGO O`HARE CLOUDY    49  43  80 S14       29.73F
KANKAKEE       CLOUDY    50  44  81 S15G24    29.77F
MOLINE         RAIN      51  48  89 S13       29.62F FOG
MOUNT VERNON   CLOUDY    54  45  71 SE8       29.77F
PITTSFIELD     CLOUDY    55  49  83 SE13      29.64F
QUINCY         LGT RAIN  52  48  86 S10       29.61F
ROCKFORD       LGT RAIN  47  43  86 S12       29.70F FOG
$$


CITY           SKY/WX    TMP DP  RH WIND       PRES   REMARKS
BURLINGTON     LGT RAIN  50  49  96 S8        29.61F FOG
CEDAR RAPIDS   RAIN      49  49 100 S12       29.57F FOG
DES MOINES     CLOUDY    53  50  89 S7        29.51F
KIRKSVILLE     LGT RAIN  53  52  96 S15       29.56F FOG
OTTUMWA        RAIN      51  49  92 S10       29.55F FOG
ST LOUIS       LGT RAIN  55  49  80 SE14      29.67F
$$


CITY           SKY/WX    TMP DP  RH WIND       PRES   REMARKS
TERRE HAUTE    CLOUDY    54  44  69 S12       29.82F
EVANSVILLE     CLOUDY    52  45  77 SE6       29.83F
INDIANAPOLIS   CLOUDY    52  42  69 SE15      29.84F
LAFAYETTE      CLOUDY    49  44  83 SE6       29.81F
MADISON        CLOUDY    50  47  89 S14       29.63F FOG
MILWAUKEE      CLOUDY    50  43  77 S14       29.70F
$$




USA.gov is the U.S. government's official web portal to all federal, state and local government web resources and services.